TimeEST,TemperatureF,Dew PointF,Humidity,Sea Level PressureIn,VisibilityMPH,Wind Direction,Wind SpeedMPH,Gust SpeedMPH,PrecipitationIn,Events,Conditions,WindDirDegrees,DateUTC
12:15 AM,28.9,28.9,100,29.97,1.2,Calm,Calm,-,N/A,,Mist,0,2014-03-08 05:15:00
12:35 AM,29.5,29.5,100,29.98,5.0,Calm,Calm,-,N/A,,Clear,0,2014-03-08 05:35:00
12:55 AM,28.0,28.0,100,29.97,4.0,Calm,Calm,-,N/A,,Clear,0,2014-03-08 05:55:00
1:15 AM,29.1,29.1,100,29.99,7.0,Calm,Calm,-,N/A,,Clear,0,2014-03-08 06:15:00
1:35 AM,27.7,27.7,100,29.99,5.0,Calm,Calm,-,N/A,,Clear,0,2014-03-08 06:35:00
1:55 AM,28.0,28.0,100,30.00,7.0,Calm,Calm,-,N/A,,Clear,0,2014-03-08 06:55:00
2:15 AM,27.9,27.9,100,30.01,5.0,Calm,Calm,-,N/A,,Clear,0,2014-03-08 07:15:00
2:35 AM,27.0,27.0,100,30.01,5.0,Calm,Calm,-,N/A,,Clear,0,2014-03-08 07:35:00
2:55 AM,28.0,28.0,100,30.01,7.0,Calm,Calm,-,N/A,,Clear,0,2014-03-08 07:55:00
3:15 AM,26.6,26.6,100,29.99,7.0,Calm,Calm,-,N/A,,Clear,0,2014-03-08 08:15:00
3:35 AM,27.0,27.0,100,29.99,7.0,Calm,Calm,-,N/A,,Clear,0,2014-03-08 08:35:00
3:55 AM,27.1,27.1,100,29.99,7.0,Calm,Calm,-,N/A,,Clear,0,2014-03-08 08:55:00
4:15 AM,26.6,26.6,100,30.00,7.0,Calm,Calm,-,N/A,,Clear,0,2014-03-08 09:15:00
4:35 AM,26.6,26.6,100,30.01,7.0,Calm,Calm,-,N/A,,Clear,0,2014-03-08 09:35:00
4:55 AM,26.1,26.1,100,30.01,7.0,Calm,Calm,-,N/A,,Clear,0,2014-03-08 09:55:00
5:15 AM,26.4,26.4,100,30.00,7.0,Calm,Calm,-,N/A,,Clear,0,2014-03-08 10:15:00
5:35 AM,25.7,25.7,100,30.00,10.0,Calm,Calm,-,N/A,,Clear,0,2014-03-08 10:35:00
5:55 AM,26.2,26.2,100,30.01,10.0,Calm,Calm,-,N/A,,Clear,0,2014-03-08 10:55:00
6:15 AM,26.4,26.4,100,30.02,10.0,Calm,Calm,-,N/A,,Clear,0,2014-03-08 11:15:00
6:35 AM,26.6,26.6,100,30.03,10.0,Calm,Calm,-,N/A,,Clear,0,2014-03-08 11:35:00
6:55 AM,25.9,25.9,100,30.04,7.0,Calm,Calm,-,N/A,,Clear,0,2014-03-08 11:55:00
7:15 AM,27.3,27.3,100,30.05,10.0,Calm,Calm,-,N/A,,Clear,0,2014-03-08 12:15:00
7:35 AM,28.6,28.4,99,30.06,10.0,Calm,Calm,-,N/A,,Clear,0,2014-03-08 12:35:00
7:55 AM,30.9,30.7,99,30.06,10.0,Calm,Calm,-,N/A,,Clear,0,2014-03-08 12:55:00
8:15 AM,34.7,34.5,99,30.06,10.0,Calm,Calm,-,N/A,,Clear,0,2014-03-08 13:15:00
8:35 AM,37.9,36.9,96,30.06,10.0,Calm,Calm,-,N/A,,Clear,0,2014-03-08 13:35:00
8:55 AM,40.1,37.4,90,30.07,10.0,Calm,Calm,-,N/A,,Clear,0,2014-03-08 13:55:00
9:15 AM,43.2,39.7,88,30.07,10.0,Calm,Calm,-,N/A,,Clear,0,2014-03-08 14:15:00
9:35 AM,45.7,40.3,81,30.08,10.0,West,3.5,-,N/A,,Clear,270,2014-03-08 14:35:00
9:55 AM,47.5,41.0,78,30.08,10.0,Calm,Calm,-,N/A,,Clear,0,2014-03-08 14:55:00
10:15 AM,50.7,42.8,74,30.07,10.0,West,3.5,-,N/A,,Clear,280,2014-03-08 15:15:00
10:35 AM,52.7,42.4,68,30.06,10.0,Calm,Calm,-,N/A,,Clear,0,2014-03-08 15:35:00
10:55 AM,55.8,43.3,63,30.06,10.0,West,4.6,-,N/A,,Clear,260,2014-03-08 15:55:00
11:15 AM,57.0,43.7,61,30.06,10.0,WSW,5.8,-,N/A,,Clear,240,2014-03-08 16:15:00
11:35 AM,58.3,43.0,57,30.05,10.0,Calm,Calm,-,N/A,,Clear,0,2014-03-08 16:35:00
11:55 AM,60.1,43.5,54,30.05,10.0,West,6.9,-,N/A,,Clear,260,2014-03-08 16:55:00
12:15 PM,61.0,43.5,53,30.04,10.0,SW,6.9,-,N/A,,Clear,230,2014-03-08 17:15:00
12:35 PM,61.9,42.8,50,30.04,10.0,WNW,6.9,-,N/A,,Clear,290,2014-03-08 17:35:00
12:55 PM,63.1,41.4,45,30.03,10.0,SW,9.2,-,N/A,,Clear,220,2014-03-08 17:55:00
1:15 PM,64.2,40.6,42,30.02,10.0,West,5.8,-,N/A,,Clear,260,2014-03-08 18:15:00
1:35 PM,63.9,41.2,43,30.01,10.0,WSW,5.8,-,N/A,,Clear,240,2014-03-08 18:35:00
1:55 PM,64.4,40.3,41,29.99,10.0,West,8.1,-,N/A,,Clear,260,2014-03-08 18:55:00
2:15 PM,65.5,40.8,41,29.99,10.0,SSW,10.4,-,N/A,,Clear,210,2014-03-08 19:15:00
2:35 PM,65.5,39.0,38,29.98,10.0,WSW,6.9,-,N/A,,Clear,250,2014-03-08 19:35:00
2:55 PM,66.0,37.8,35,29.98,10.0,SW,9.2,17.3,N/A,,Clear,220,2014-03-08 19:55:00
3:15 PM,66.6,38.3,35,29.98,10.0,SSW,11.5,16.1,N/A,,Clear,210,2014-03-08 20:15:00
3:35 PM,66.4,40.3,38,29.98,10.0,SW,6.9,-,N/A,,Clear,230,2014-03-08 20:35:00
3:55 PM,66.0,39.4,38,29.97,10.0,SW,6.9,-,N/A,,Clear,220,2014-03-08 20:55:00
4:10 PM,66.2,39.9,38,29.97,10.0,SW,6.9,16.1,N/A,,Clear,220,2014-03-08 21:10:00
4:35 PM,66.2,39.6,38,29.97,10.0,WSW,8.1,-,N/A,,Clear,240,2014-03-08 21:35:00
4:55 PM,65.8,39.2,38,29.97,10.0,SW,6.9,-,N/A,,Clear,220,2014-03-08 21:55:00
5:15 PM,65.5,37.9,36,29.97,10.0,WSW,8.1,-,N/A,,Clear,240,2014-03-08 22:15:00
5:35 PM,64.8,38.5,38,29.98,10.0,SW,4.6,-,N/A,,Clear,220,2014-03-08 22:35:00
5:55 PM,63.5,38.3,39,29.99,10.0,SW,6.9,-,N/A,,Clear,230,2014-03-08 22:55:00
6:15 PM,62.4,39.2,42,29.99,10.0,SW,5.8,-,N/A,,Clear,230,2014-03-08 23:15:00
6:35 PM,57.9,40.3,52,29.99,10.0,Calm,Calm,-,N/A,,Clear,0,2014-03-08 23:35:00
6:55 PM,54.0,41.5,63,30.00,10.0,Calm,Calm,-,N/A,,Clear,0,2014-03-08 23:55:00
7:15 PM,52.3,41.9,68,30.01,10.0,Calm,Calm,-,N/A,,Clear,0,2014-03-09 00:15:00
7:35 PM,49.3,42.6,78,30.01,10.0,Calm,Calm,-,N/A,,Clear,0,2014-03-09 00:35:00
7:55 PM,46.8,42.3,84,30.01,10.0,Calm,Calm,-,N/A,,Clear,0,2014-03-09 00:55:00
8:15 PM,46.8,42.4,85,30.01,10.0,Calm,Calm,-,N/A,,Clear,0,2014-03-09 01:15:00
8:35 PM,46.8,42.3,84,30.01,10.0,SSW,3.5,-,N/A,,Clear,200,2014-03-09 01:35:00
8:55 PM,46.6,42.1,84,30.01,10.0,Calm,Calm,-,N/A,,Clear,0,2014-03-09 01:55:00
9:15 PM,44.2,40.8,88,30.01,10.0,Calm,Calm,-,N/A,,Clear,0,2014-03-09 02:15:00
9:35 PM,44.4,41.4,89,30.01,10.0,South,3.5,-,N/A,,Clear,190,2014-03-09 02:35:00
9:55 PM,43.7,41.4,91,30.01,10.0,SSW,3.5,-,N/A,,Clear,200,2014-03-09 02:55:00
10:15 PM,43.9,40.3,87,30.00,10.0,SSW,3.5,-,N/A,,Clear,200,2014-03-09 03:15:00
10:35 PM,43.9,40.5,88,29.99,10.0,Calm,Calm,-,N/A,,Clear,0,2014-03-09 03:35:00
10:55 PM,42.1,40.6,95,29.99,10.0,Calm,Calm,-,N/A,,Clear,0,2014-03-09 03:55:00
11:15 PM,42.1,40.8,95,29.99,10.0,Calm,Calm,-,N/A,,Clear,0,2014-03-09 04:15:00
11:35 PM,41.9,40.8,96,29.99,10.0,Calm,Calm,-,N/A,,Clear,0,2014-03-09 04:35:00
11:55 PM,40.3,39.6,97,29.99,10.0,Calm,Calm,-,N/A,,Clear,0,2014-03-09 04:55:00